Regional Weather Roundup
Issued by NWS Glasgow, MT

Home | Current Version | Previous Version | Text Only | Print | Product List | Glossary On
Versions: 1 2 3 4 5 6 7 8 9 10 11 12 13 14 15 16 17 18 19 20 21 22 23 24 25 26 27
000
ASUS45 KGGW 290815
RWRGGW
HOURLY REGIONAL WEATHER ROUNDUP FOR NORTHEAST MONTANA
NATIONAL WEATHER SERVICE GLASGOW MONTANA
200 AM MDT MON MAY 29 2017

NOTE: "FAIR" INDICATES FEW OR NO CLOUDS BELOW 12,000 FEET WITH NO
SIGNIFICANT WEATHER AND/OR OBSTRUCTIONS TO VISISBILITY.

NORTHEAST MONTANA


CITY           SKY/WX    TMP DP  RH WIND       PRES   REMARKS
GLASGOW        CLEAR     47  31  53 N9        30.18R
PLENTYWOOD       N/A     44  35  70 N6          N/A
WOLF POINT     PTCLDY    50  33  52 N9        30.15R
JORDAN           N/A     41  25  53 CALM      30.19R
WINNETT          N/A     39  33  79 W3          N/A
SIDNEY         CLEAR     45  35  68 NW13      30.11R
GLENDIVE       CLEAR     46  30  53 NW10      30.14R
MALTA            N/A     46  34  62 N3          N/A
SCOBEY           N/A     41  28  60 CALM      30.13R
OPHEIM           N/A     41  32  70 N5        30.03R

FORT PECK REPORTS


CITY           SKY/WX    TMP DP  RH WIND       PRES   REMARKS
FORT PECK        N/A     46  32  58 NW7         N/A
THE PINES        N/A     49  28  44 N1          N/A

SOUTHEAST MONTANA


CITY           SKY/WX    TMP DP  RH WIND       PRES   REMARKS
BILLINGS       PTCLDY    51  43  74 NW6       30.22S
MILES CITY     CLEAR     44  26  49 NW7       30.15S
BAKER          PTCLDY    44  33  65 W5        30.14R
LIVINGSTON     CLOUDY    42  40  92 W3        30.28R

CENTRAL MONTANA


CITY           SKY/WX    TMP DP  RH WIND       PRES   REMARKS
HAVRE          CLEAR     43  31  62 N5        30.23R
LEWISTOWN      PTCLDY    42  38  85 SE5       30.25S
GREAT FALLS    CLEAR     46  44  93 SW6       30.25S
CUT BANK       MOCLDY    50  41  71 NE6       30.24F
HELENA         CLEAR     52  44  74 CALM      30.24S
BUTTE          CLEAR     42  38  85 SE5       30.30S
BOZEMAN        CLOUDY    47  41  80 S6        30.27R

WESTERN MONTANA


CITY           SKY/WX    TMP DP  RH WIND       PRES   REMARKS
MISSOULA       PTCLDY    64  41  42 E7        30.18R
KALISPELL      NOT AVBL

NORTH DAKOTA


CITY           SKY/WX    TMP DP  RH WIND       PRES   REMARKS
WILLISTON      PTCLDY    50  39  66 NW12      30.09R
DICKINSON      CLEAR     39  35  86 NW10      30.06R
MINOT          CLOUDY    53  43  68 NW18G28   29.97R
BISMARCK       PTCLDY    51  42  71 NW12      29.98R

SOUTHERN SASKATCHEWAN


CITY           SKY/WX    TMP DP  RH WIND       PRES   REMARKS
REGINA         MOCLDY    50  41  71 NW12      30.10S
ESTEVAN        PTCLDY    48  45  87 NW13      30.04S
SWIFT CURRENT  CLEAR     45  34  65 NW3       30.20R





USA.gov is the U.S. government's official web portal to all federal, state and local government web resources and services.